Time,TemperatureF,DewpointF,PressureIn,WindDirection,WindDirectionDegrees,WindSpeedMPH,WindSpeedGustMPH,Humidity,HourlyPrecipIn,Conditions,Clouds,dailyrainin,SoftwareType,DateUTC
2013-04-26 00:03:00,39.0,31.0,30.35,West,270,0.0,0.0,72,0.00,,,0.00,,2013-04-26 04:03:00,
2013-04-26 00:12:00,39.0,31.0,30.35,West,270,0.0,0.0,72,0.00,,,0.00,,2013-04-26 04:12:00,
2013-04-26 00:23:00,38.0,30.0,30.34,West,270,0.0,0.0,74,0.00,,,0.00,,2013-04-26 04:23:00,
2013-04-26 00:32:00,38.0,30.0,30.34,West,270,0.0,0.0,74,0.00,,,0.00,,2013-04-26 04:32:00,
2013-04-26 00:43:00,38.0,30.0,30.34,West,270,0.0,0.0,74,0.00,,,0.00,,2013-04-26 04:43:00,
2013-04-26 00:53:00,38.0,31.0,30.34,West,269,0.0,0.0,76,0.00,,,0.00,,2013-04-26 04:53:00,
2013-04-26 01:02:00,37.0,31.0,30.34,West,269,0.0,0.0,78,0.00,,,0.00,,2013-04-26 05:02:00,
2013-04-26 01:13:00,37.0,31.0,30.34,West,269,0.0,0.0,78,0.00,,,0.00,,2013-04-26 05:13:00,
2013-04-26 01:22:00,36.0,30.0,30.35,West,270,0.0,0.0,80,0.00,,,0.00,,2013-04-26 05:22:00,
2013-04-26 01:32:00,35.0,30.0,30.35,West,270,0.0,0.0,82,0.00,,,0.00,,2013-04-26 05:32:00,
2013-04-26 01:42:00,35.0,30.0,30.35,West,270,0.0,0.0,82,0.00,,,0.00,,2013-04-26 05:42:00,
2013-04-26 01:52:00,34.0,30.0,30.35,West,270,0.0,0.0,84,0.00,,,0.00,,2013-04-26 05:52:00,
2013-04-26 02:02:00,34.0,30.0,30.35,West,270,0.0,0.0,85,0.00,,,0.00,,2013-04-26 06:02:00,
2013-04-26 02:11:00,34.0,30.0,30.35,West,270,0.0,0.0,85,0.00,,,0.00,,2013-04-26 06:11:00,
2013-04-26 02:22:00,34.0,30.0,30.35,West,270,0.0,0.0,86,0.00,,,0.00,,2013-04-26 06:22:00,
2013-04-26 02:32:00,34.0,31.0,30.35,West,269,0.0,0.0,87,0.00,,,0.00,,2013-04-26 06:32:00,
2013-04-26 02:42:00,34.0,31.0,30.35,West,269,0.0,0.0,87,0.00,,,0.00,,2013-04-26 06:42:00,
2013-04-26 02:52:00,34.0,31.0,30.35,West,269,0.0,0.0,88,0.00,,,0.00,,2013-04-26 06:52:00,
2013-04-26 03:01:00,34.0,31.0,30.35,West,269,0.0,0.0,88,0.00,,,0.00,,2013-04-26 07:01:00,
2013-04-26 03:11:00,34.0,31.0,30.35,West,269,0.0,0.0,88,0.00,,,0.00,,2013-04-26 07:11:00,
2013-04-26 03:22:00,33.0,30.0,30.35,West,270,0.0,0.0,88,0.00,,,0.00,,2013-04-26 07:22:00,
2013-04-26 03:32:00,33.0,30.0,30.35,West,269,0.0,0.0,88,0.00,,,0.00,,2013-04-26 07:32:00,
2013-04-26 03:42:00,33.0,30.0,30.35,West,269,0.0,0.0,88,0.00,,,0.00,,2013-04-26 07:42:00,
2013-04-26 03:52:00,33.0,30.0,30.35,West,270,0.0,0.0,88,0.00,,,0.00,,2013-04-26 07:52:00,
2013-04-26 04:02:00,32.0,29.0,30.35,West,269,0.0,0.0,89,0.00,,,0.00,,2013-04-26 08:02:00,
2013-04-26 04:11:00,32.0,29.0,30.35,West,269,0.0,0.0,89,0.00,,,0.00,,2013-04-26 08:11:00,
2013-04-26 04:22:00,32.0,29.0,30.35,West,269,0.0,0.0,90,0.00,,,0.00,,2013-04-26 08:22:00,
2013-04-26 04:32:00,32.0,29.0,30.35,West,269,0.0,0.0,89,0.00,,,0.00,,2013-04-26 08:32:00,
2013-04-26 04:42:00,32.0,29.0,30.35,West,269,0.0,0.0,89,0.00,,,0.00,,2013-04-26 08:42:00,
2013-04-26 04:52:00,31.0,28.0,30.35,West,270,0.0,0.0,89,0.00,,,0.00,,2013-04-26 08:52:00,
2013-04-26 05:01:00,31.0,28.0,30.35,West,270,0.0,0.0,90,0.00,,,0.00,,2013-04-26 09:01:00,
2013-04-26 05:11:00,31.0,28.0,30.35,West,270,0.0,0.0,90,0.00,,,0.00,,2013-04-26 09:11:00,
2013-04-26 05:22:00,31.0,28.0,30.36,West,269,0.0,0.0,90,0.00,,,0.00,,2013-04-26 09:22:00,
2013-04-26 05:33:00,31.0,28.0,30.36,West,270,0.0,0.0,90,0.00,,,0.00,,2013-04-26 09:33:00,
2013-04-26 05:43:00,31.0,28.0,30.36,West,270,0.0,0.0,90,0.00,,,0.00,,2013-04-26 09:43:00,
2013-04-26 05:53:00,30.0,27.0,30.37,West,270,0.0,0.0,90,0.00,,,0.00,,2013-04-26 09:53:00,
2013-04-26 06:03:00,30.0,28.0,30.37,West,270,0.0,0.0,91,0.00,,,0.00,,2013-04-26 10:03:00,
2013-04-26 06:12:00,30.0,28.0,30.37,West,270,0.0,0.0,91,0.00,,,0.00,,2013-04-26 10:12:00,
2013-04-26 06:23:00,31.0,29.0,30.37,West,269,0.0,0.0,91,0.00,,,0.00,,2013-04-26 10:23:00,
2013-04-26 06:33:00,31.0,29.0,30.38,West,270,0.0,0.0,92,0.00,,,0.00,,2013-04-26 10:33:00,
2013-04-26 06:42:00,31.0,29.0,30.38,West,270,0.0,0.0,92,0.00,,,0.00,,2013-04-26 10:42:00,
2013-04-26 06:52:00,31.0,29.0,30.38,West,270,0.0,0.0,92,0.00,,,0.00,,2013-04-26 10:52:00,
2013-04-26 07:02:00,31.0,29.0,30.39,West,270,0.0,0.0,91,0.00,,,0.00,,2013-04-26 11:02:00,
2013-04-26 07:11:00,31.0,29.0,30.39,West,270,0.0,0.0,91,0.00,,,0.00,,2013-04-26 11:11:00,
2013-04-26 07:22:00,30.0,28.0,30.39,West,270,0.0,0.0,91,0.00,,,0.00,,2013-04-26 11:22:00,
2013-04-26 07:32:00,31.0,29.0,30.39,West,269,0.0,0.0,92,0.00,,,0.00,,2013-04-26 11:32:00,
2013-04-26 07:42:00,31.0,29.0,30.39,West,269,0.0,0.0,92,0.00,,,0.00,,2013-04-26 11:42:00,
2013-04-26 07:52:00,31.0,29.0,30.40,West,269,0.0,0.0,92,0.00,,,0.00,,2013-04-26 11:52:00,
2013-04-26 08:01:00,33.0,31.0,30.40,West,270,0.0,0.0,92,0.00,,,0.00,,2013-04-26 12:01:00,
2013-04-26 08:11:00,33.0,31.0,30.40,West,270,0.0,0.0,92,0.00,,,0.00,,2013-04-26 12:11:00,
2013-04-26 08:21:00,34.0,32.0,30.40,West,270,0.0,0.0,91,0.00,,,0.00,,2013-04-26 12:21:00,
2013-04-26 08:32:00,36.0,34.0,30.41,West,270,0.0,3.0,91,0.00,,,0.00,,2013-04-26 12:32:00,
2013-04-26 08:42:00,36.0,34.0,30.41,West,270,0.0,3.0,91,0.00,,,0.00,,2013-04-26 12:42:00,
2013-04-26 08:52:00,38.0,34.0,30.41,West,267,0.0,0.0,87,0.00,,,0.00,,2013-04-26 12:52:00,
2013-04-26 09:01:00,41.0,36.0,30.41,South,182,4.0,5.0,82,0.00,,,0.00,,2013-04-26 13:01:00,
2013-04-26 09:11:00,41.0,36.0,30.41,South,182,4.0,5.0,82,0.00,,,0.00,,2013-04-26 13:11:00,
2013-04-26 09:22:00,43.0,37.0,30.42,South,180,4.0,7.0,78,0.00,,,0.00,,2013-04-26 13:22:00,
2013-04-26 09:32:00,44.0,36.0,30.41,SSE,159,6.0,9.0,73,0.00,,,0.00,,2013-04-26 13:32:00,
2013-04-26 09:42:00,44.0,36.0,30.41,SSE,159,6.0,9.0,73,0.00,,,0.00,,2013-04-26 13:42:00,
2013-04-26 09:52:00,46.0,37.0,30.40,SSE,165,9.0,13.0,70,0.00,,,0.00,,2013-04-26 13:52:00,
2013-04-26 10:01:00,47.0,37.0,30.40,SSE,165,10.0,14.0,67,0.00,,,0.00,,2013-04-26 14:01:00,
2013-04-26 10:11:00,47.0,37.0,30.40,SSE,165,10.0,14.0,67,0.00,,,0.00,,2013-04-26 14:11:00,
2013-04-26 10:21:00,49.0,39.0,30.40,SSE,167,13.0,14.0,68,0.00,,,0.00,,2013-04-26 14:21:00,
2013-04-26 10:32:00,49.0,37.0,30.41,South,173,10.0,14.0,64,0.00,,,0.00,,2013-04-26 14:32:00,
2013-04-26 10:42:00,49.0,37.0,30.41,South,173,10.0,14.0,64,0.00,,,0.00,,2013-04-26 14:42:00,
2013-04-26 10:52:00,50.0,38.0,30.40,SSE,152,10.0,15.0,63,0.00,,,0.00,,2013-04-26 14:52:00,
2013-04-26 11:01:00,51.0,38.0,30.40,SSE,156,10.0,16.0,61,0.00,,,0.00,,2013-04-26 15:01:00,
2013-04-26 11:12:00,51.0,38.0,30.40,SSE,156,10.0,16.0,61,0.00,,,0.00,,2013-04-26 15:12:00,
2013-04-26 11:22:00,52.0,38.0,30.40,SSE,159,9.0,13.0,59,0.00,,,0.00,,2013-04-26 15:22:00,
2013-04-26 11:33:00,53.0,39.0,30.41,South,184,7.0,15.0,59,0.00,,,0.00,,2013-04-26 15:33:00,
2013-04-26 11:43:00,53.0,39.0,30.41,South,184,7.0,15.0,59,0.00,,,0.00,,2013-04-26 15:43:00,
2013-04-26 11:53:00,54.0,39.0,30.41,SSW,203,12.0,14.0,56,0.00,,,0.00,,2013-04-26 15:53:00,
2013-04-26 12:03:00,54.0,39.0,30.41,South,190,7.0,13.0,56,0.00,,,0.00,,2013-04-26 16:03:00,
2013-04-26 12:13:00,54.0,39.0,30.41,South,190,7.0,13.0,56,0.00,,,0.00,,2013-04-26 16:13:00,
2013-04-26 12:23:00,55.0,39.0,30.41,SSW,206,5.0,13.0,54,0.00,,,0.00,,2013-04-26 16:23:00,
2013-04-26 12:33:00,55.0,39.0,30.42,South,170,8.0,12.0,55,0.00,,,0.00,,2013-04-26 16:33:00,
2013-04-26 12:42:00,55.0,39.0,30.42,South,170,8.0,12.0,55,0.00,,,0.00,,2013-04-26 16:42:00,
2013-04-26 12:53:00,55.0,40.0,30.41,SE,129,6.0,15.0,56,0.00,,,0.00,,2013-04-26 16:53:00,
2013-04-26 13:02:00,56.0,41.0,30.41,SW,225,6.0,15.0,58,0.00,,,0.00,,2013-04-26 17:02:00,
2013-04-26 13:12:00,56.0,41.0,30.41,SW,225,6.0,15.0,58,0.00,,,0.00,,2013-04-26 17:12:00,
2013-04-26 13:22:00,56.0,40.0,30.41,South,174,10.0,15.0,55,0.00,,,0.00,,2013-04-26 17:22:00,
2013-04-26 13:32:00,57.0,41.0,30.40,SSE,150,9.0,17.0,55,0.00,,,0.00,,2013-04-26 17:32:00,
2013-04-26 13:42:00,57.0,41.0,30.40,SSE,150,9.0,17.0,55,0.00,,,0.00,,2013-04-26 17:42:00,
2013-04-26 13:52:00,58.0,42.0,30.40,SSW,207,10.0,16.0,55,0.00,,,0.00,,2013-04-26 17:52:00,
2013-04-26 14:02:00,58.0,41.0,30.39,SSE,164,6.0,13.0,54,0.00,,,0.00,,2013-04-26 18:02:00,
2013-04-26 14:12:00,58.0,41.0,30.39,SSE,164,6.0,13.0,54,0.00,,,0.00,,2013-04-26 18:12:00,
2013-04-26 14:22:00,58.0,43.0,30.39,South,175,5.0,15.0,57,0.00,,,0.00,,2013-04-26 18:22:00,
2013-04-26 14:33:00,59.0,42.0,30.38,SSW,213,7.0,14.0,53,0.00,,,0.00,,2013-04-26 18:33:00,
2013-04-26 14:42:00,59.0,42.0,30.38,SSW,213,7.0,14.0,53,0.00,,,0.00,,2013-04-26 18:42:00,
2013-04-26 14:52:00,59.0,42.0,30.37,South,175,7.0,23.0,54,0.00,,,0.00,,2013-04-26 18:52:00,
2013-04-26 15:01:00,59.0,40.0,30.37,SSW,211,5.0,17.0,50,0.00,,,0.00,,2013-04-26 19:01:00,
2013-04-26 15:12:00,59.0,40.0,30.37,SSW,211,5.0,17.0,50,0.00,,,0.00,,2013-04-26 19:12:00,
2013-04-26 15:22:00,60.0,42.0,30.37,SSE,157,7.0,12.0,52,0.00,,,0.00,,2013-04-26 19:22:00,
2013-04-26 15:32:00,60.0,43.0,30.36,SW,229,6.0,11.0,53,0.00,,,0.00,,2013-04-26 19:32:00,
2013-04-26 15:42:00,60.0,43.0,30.36,SW,229,6.0,11.0,53,0.00,,,0.00,,2013-04-26 19:42:00,
2013-04-26 15:52:00,60.0,42.0,30.35,SSW,212,3.0,13.0,51,0.00,,,0.00,,2013-04-26 19:52:00,
2013-04-26 16:02:00,61.0,43.0,30.35,SW,217,10.0,14.0,51,0.00,,,0.00,,2013-04-26 20:02:00,
2013-04-26 16:11:00,61.0,43.0,30.35,SW,217,10.0,14.0,51,0.00,,,0.00,,2013-04-26 20:11:00,
2013-04-26 16:22:00,61.0,43.0,30.34,SSW,211,10.0,14.0,52,0.00,,,0.00,,2013-04-26 20:22:00,
2013-04-26 16:32:00,61.0,43.0,30.34,SW,219,6.0,15.0,52,0.00,,,0.00,,2013-04-26 20:32:00,
2013-04-26 16:42:00,61.0,43.0,30.34,SW,219,6.0,15.0,52,0.00,,,0.00,,2013-04-26 20:42:00,
2013-04-26 16:52:00,61.0,43.0,30.34,SW,227,13.0,15.0,51,0.00,,,0.00,,2013-04-26 20:52:00,
2013-04-26 17:02:00,62.0,43.0,30.33,South,188,9.0,14.0,50,0.00,,,0.00,,2013-04-26 21:02:00,
2013-04-26 17:11:00,62.0,43.0,30.33,South,188,9.0,14.0,50,0.00,,,0.00,,2013-04-26 21:11:00,
2013-04-26 17:22:00,62.0,43.0,30.33,SSW,201,10.0,15.0,49,0.00,,,0.00,,2013-04-26 21:22:00,
2013-04-26 17:33:00,62.0,43.0,30.33,SSW,192,9.0,17.0,50,0.00,,,0.00,,2013-04-26 21:33:00,
2013-04-26 17:42:00,62.0,43.0,30.33,SSW,192,9.0,17.0,50,0.00,,,0.00,,2013-04-26 21:42:00,
2013-04-26 17:53:00,62.0,42.0,30.33,South,178,10.0,16.0,47,0.00,,,0.00,,2013-04-26 21:53:00,
2013-04-26 18:03:00,62.0,43.0,30.32,SSW,213,10.0,19.0,49,0.00,,,0.00,,2013-04-26 22:03:00,
2013-04-26 18:12:00,62.0,43.0,30.32,SSW,213,10.0,19.0,49,0.00,,,0.00,,2013-04-26 22:12:00,
2013-04-26 18:23:00,61.0,43.0,30.32,SW,219,9.0,14.0,51,0.00,,,0.00,,2013-04-26 22:23:00,
2013-04-26 18:33:00,61.0,42.0,30.33,SW,214,13.0,17.0,50,0.00,,,0.00,,2013-04-26 22:33:00,
2013-04-26 18:42:00,61.0,42.0,30.33,SW,214,13.0,17.0,50,0.00,,,0.00,,2013-04-26 22:42:00,
2013-04-26 18:52:00,61.0,44.0,30.33,SSW,192,12.0,16.0,53,0.00,,,0.00,,2013-04-26 22:52:00,
2013-04-26 19:02:00,60.0,42.0,30.32,SSW,194,12.0,15.0,51,0.00,,,0.00,,2013-04-26 23:02:00,
2013-04-26 19:12:00,60.0,42.0,30.32,SSW,194,12.0,15.0,51,0.00,,,0.00,,2013-04-26 23:12:00,
2013-04-26 19:21:00,60.0,42.0,30.32,South,178,12.0,13.0,51,0.00,,,0.00,,2013-04-26 23:21:00,
2013-04-26 19:32:00,59.0,42.0,30.32,South,180,11.0,14.0,53,0.00,,,0.00,,2013-04-26 23:32:00,
2013-04-26 19:42:00,59.0,42.0,30.32,South,180,11.0,14.0,53,0.00,,,0.00,,2013-04-26 23:42:00,
2013-04-26 19:52:00,59.0,42.0,30.32,SSW,194,9.0,14.0,54,0.00,,,0.00,,2013-04-26 23:52:00,
2013-04-26 20:01:00,58.0,42.0,30.32,SSW,194,7.0,10.0,56,0.00,,,0.00,,2013-04-27 00:01:00,
2013-04-26 20:11:00,58.0,42.0,30.32,SSW,194,7.0,10.0,56,0.00,,,0.00,,2013-04-27 00:11:00,
2013-04-26 20:21:00,57.0,44.0,30.32,South,187,7.0,11.0,61,0.00,,,0.00,,2013-04-27 00:21:00,
2013-04-26 20:32:00,56.0,44.0,30.32,South,187,6.0,8.0,64,0.00,,,0.00,,2013-04-27 00:32:00,
2013-04-26 20:42:00,56.0,44.0,30.32,South,187,6.0,8.0,64,0.00,,,0.00,,2013-04-27 00:42:00,
2013-04-26 20:52:00,55.0,44.0,30.32,South,187,6.0,9.0,66,0.00,,,0.00,,2013-04-27 00:52:00,
2013-04-26 21:01:00,54.0,43.0,30.32,South,187,7.0,9.0,67,0.00,,,0.00,,2013-04-27 01:01:00,
2013-04-26 21:12:00,54.0,43.0,30.32,South,187,7.0,9.0,67,0.00,,,0.00,,2013-04-27 01:12:00,
2013-04-26 21:21:00,52.0,42.0,30.32,South,187,4.0,7.0,69,0.00,,,0.00,,2013-04-27 01:21:00,
2013-04-26 21:32:00,51.0,42.0,30.32,South,180,4.0,5.0,71,0.00,,,0.00,,2013-04-27 01:32:00,
2013-04-26 21:42:00,51.0,42.0,30.32,South,180,4.0,5.0,71,0.00,,,0.00,,2013-04-27 01:42:00,
2013-04-26 21:52:00,50.0,41.0,30.33,South,179,4.0,5.0,72,0.00,,,0.00,,2013-04-27 01:52:00,
2013-04-26 22:02:00,50.0,42.0,30.32,South,173,4.0,7.0,73,0.00,,,0.00,,2013-04-27 02:02:00,
2013-04-26 22:11:00,50.0,42.0,30.32,South,173,4.0,7.0,73,0.00,,,0.00,,2013-04-27 02:11:00,
2013-04-26 22:22:00,50.0,42.0,30.32,South,172,3.0,5.0,74,0.00,,,0.00,,2013-04-27 02:22:00,
2013-04-26 22:32:00,49.0,41.0,30.33,South,173,0.0,3.0,74,0.00,,,0.00,,2013-04-27 02:32:00,
2013-04-26 22:42:00,49.0,41.0,30.33,South,173,0.0,3.0,74,0.00,,,0.00,,2013-04-27 02:42:00,
2013-04-26 22:52:00,49.0,41.0,30.32,South,169,0.0,0.0,75,0.00,,,0.00,,2013-04-27 02:52:00,
2013-04-26 23:02:00,48.0,41.0,30.32,South,170,0.0,0.0,76,0.00,,,0.00,,2013-04-27 03:02:00,
2013-04-26 23:11:00,48.0,41.0,30.32,South,170,0.0,0.0,76,0.00,,,0.00,,2013-04-27 03:11:00,
2013-04-26 23:22:00,47.0,40.0,30.32,South,169,0.0,0.0,76,0.00,,,0.00,,2013-04-27 03:22:00,
2013-04-26 23:33:00,47.0,40.0,30.32,South,169,0.0,0.0,76,0.00,,,0.00,,2013-04-27 03:33:00,
2013-04-26 23:43:00,47.0,40.0,30.32,South,169,0.0,0.0,76,0.00,,,0.00,,2013-04-27 03:43:00,
2013-04-26 23:53:00,46.0,39.0,30.32,SSE,165,2.0,5.0,77,0.00,,,0.00,,2013-04-27 03:53:00,